When you browse on this site, cookies collect data to enhance your experience and personalize the content and advertising you see.
Visit our Privacy Policy to learn more. By continuing to use the site, you agree to this use of cookies and data.
  • en France
  • Liste des pays
  • À 7 jours
  • Température de l'eau
  • Carte météo
  • Widgets météo
  • user-avatar
    Se connecter

    Météo par heure à Willoughby

    Ce jour, 26 Mai, Mardi

    Heure Température Précipitation Vent Pression Humidité
    00:00 +23°C° 0.1 mm 2 m/s 745 mmHg 89%
    01:00 +23°C° 0.1 mm 2 m/s 745 mmHg 90%
    02:00 +21°C° 0 mm 2 m/s 745 mmHg 90%
    03:00 +21°C° 0 mm 2 m/s 745 mmHg 90%
    04:00 +20°C° 0 mm 2 m/s 744 mmHg 91%
    05:00 +21°C° 0 mm 2 m/s 745 mmHg 89%
    06:00 +23°C° 0 mm 2 m/s 745 mmHg 87%
    07:00 +23°C° 0 mm 2 m/s 745 mmHg 85%
    08:00 +25°C° 0.1 mm 2 m/s 745 mmHg 82%
    09:00 +27°C° 0.1 mm 2 m/s 746 mmHg 79%
    10:00 +28°C° 0.1 mm 1 m/s 746 mmHg 77%
    11:00 +29°C° 0.1 mm 2 m/s 746 mmHg 70%
    12:00 +31°C° 0.1 mm 2 m/s 745 mmHg 63%
    13:00 +32°C° 0.1 mm 2 m/s 745 mmHg 56%
    14:00 +32°C° 0 mm 2 m/s 745 mmHg 55%
    15:00 +32°C° 0 mm 2 m/s 745 mmHg 55%
    16:00 +32°C° 0 mm 2 m/s 744 mmHg 55%
    17:00 +30°C° 0 mm 2 m/s 744 mmHg 60%
    18:00 +29°C° 0 mm 2 m/s 744 mmHg 66%
    19:00 +27°C° 0 mm 2 m/s 744 mmHg 71%
    20:00 +26°C° 0 mm 2 m/s 744 mmHg 72%
    21:00 +25°C° 0 mm 3 m/s 745 mmHg 72%
    22:00 +22°C° 0 mm 3 m/s 745 mmHg 73%
    23:00 +22°C° 0 mm 4 m/s 745 mmHg 75%

    Demain, 27 Mai, Mercredi

    Heure Température Précipitation Vent Pression Humidité
    00:00 +22°C° 0 mm 4 m/s 745 mmHg 77%
    01:00 +21°C° 0 mm 4 m/s 745 mmHg 79%
    02:00 +21°C° 0 mm 4 m/s 745 mmHg 80%
    03:00 +20°C° 0 mm 4 m/s 745 mmHg 82%
    04:00 +20°C° 0 mm 4 m/s 745 mmHg 84%
    05:00 +20°C° 0 mm 4 m/s 745 mmHg 82%
    06:00 +21°C° 0 mm 4 m/s 745 mmHg 81%
    07:00 +21°C° 0 mm 4 m/s 746 mmHg 79%
    08:00 +23°C° 0 mm 4 m/s 746 mmHg 75%
    09:00 +25°C° 0 mm 3 m/s 745 mmHg 70%
    10:00 +27°C° 0 mm 3 m/s 745 mmHg 66%
    11:00 +28°C° 0 mm 3 m/s 745 mmHg 63%
    12:00 +29°C° 0 mm 3 m/s 745 mmHg 60%
    13:00 +30°C° 0 mm 3 m/s 745 mmHg 57%
    14:00 +30°C° 0 mm 2 m/s 744 mmHg 57%
    15:00 +30°C° 0 mm 2 m/s 744 mmHg 57%
    16:00 +30°C° 0 mm 2 m/s 744 mmHg 56%
    17:00 +29°C° 0 mm 2 m/s 744 mmHg 62%
    18:00 +27°C° 0 mm 1 m/s 744 mmHg 68%
    19:00 +26°C° 0 mm 1 m/s 744 mmHg 73%
    20:00 +25°C° 0 mm 1 m/s 744 mmHg 76%
    21:00 +24°C° 0 mm 2 m/s 744 mmHg 78%
    22:00 +22°C° 0 mm 3 m/s 744 mmHg 81%
    23:00 +21°C° 0 mm 3 m/s 744 mmHg 82%

    Après-demain, 28 Mai, Jeudi

    Heure Température Précipitation Vent Pression Humidité
    00:00 +21°C° 0 mm 3 m/s 744 mmHg 83%
    01:00 +20°C° 0 mm 3 m/s 744 mmHg 84%
    02:00 +20°C° 0 mm 3 m/s 744 mmHg 85%
    03:00 +20°C° 0 mm 3 m/s 744 mmHg 85%
    04:00 +20°C° 0 mm 3 m/s 744 mmHg 86%
    05:00 +20°C° 0 mm 3 m/s 744 mmHg 84%
    06:00 +21°C° 0 mm 3 m/s 744 mmHg 82%
    07:00 +22°C° 0 mm 3 m/s 744 mmHg 81%
    08:00 +24°C° 0 mm 3 m/s 744 mmHg 76%
    09:00 +26°C° 0 mm 3 m/s 744 mmHg 72%
    10:00 +27°C° 0 mm 3 m/s 744 mmHg 67%
    11:00 +28°C° 0 mm 3 m/s 743 mmHg 64%
    12:00 +29°C° 0 mm 3 m/s 743 mmHg 60%
    13:00 +30°C° 0 mm 3 m/s 742 mmHg 57%
    14:00 +30°C° 0.3 mm 2 m/s 742 mmHg 61%
    15:00 +29°C° 0.3 mm 2 m/s 741 mmHg 66%
    16:00 +29°C° 0.3 mm 2 m/s 741 mmHg 71%
    17:00 +28°C° 0.6 mm 2 m/s 741 mmHg 76%
    18:00 +27°C° 0.6 mm 2 m/s 741 mmHg 81%
    19:00 +26°C° 0.6 mm 2 m/s 741 mmHg 86%
    20:00 +25°C° 0.6 mm 2 m/s 741 mmHg 88%
    21:00 +25°C° 0.6 mm 3 m/s 741 mmHg 89%
    22:00 +24°C° 0.6 mm 3 m/s 741 mmHg 90%
    23:00 +22°C° 0.1 mm 3 m/s 741 mmHg 91%

    29 Mai, Vendredi

    Heure Température Précipitation Vent Pression Humidité
    00:00 +22°C° 0.1 mm 4 m/s 741 mmHg 91%
    01:00 +22°C° 0.1 mm 4 m/s 740 mmHg 91%
    02:00 +22°C° 0 mm 4 m/s 740 mmHg 92%
    03:00 +21°C° 0 mm 4 m/s 740 mmHg 92%
    04:00 +21°C° 0 mm 4 m/s 740 mmHg 92%
    05:00 +21°C° 0 mm 4 m/s 740 mmHg 91%
    06:00 +21°C° 0 mm 4 m/s 741 mmHg 90%
    07:00 +22°C° 0 mm 4 m/s 741 mmHg 89%
    08:00 +23°C° 0 mm 5 m/s 741 mmHg 80%
    09:00 +26°C° 0 mm 5 m/s 741 mmHg 72%
    10:00 +27°C° 0 mm 5 m/s 741 mmHg 64%
    11:00 +27°C° 0.2 mm 6 m/s 741 mmHg 64%
    12:00 +28°C° 0.2 mm 6 m/s 740 mmHg 64%
    13:00 +28°C° 0.2 mm 6 m/s 740 mmHg 64%
    14:00 +27°C° 0.4 mm 6 m/s 740 mmHg 68%
    15:00 +27°C° 0.4 mm 5 m/s 740 mmHg 72%
    16:00 +26°C° 0.4 mm 5 m/s 740 mmHg 76%
    17:00 +25°C° 0.1 mm 4 m/s 740 mmHg 78%
    18:00 +23°C° 0.1 mm 4 m/s 740 mmHg 80%
    19:00 +21°C° 0.1 mm 3 m/s 740 mmHg 82%
    20:00 +20°C° 0 mm 2 m/s 741 mmHg 84%
    21:00 +19°C° 0 mm 2 m/s 741 mmHg 85%
    22:00 +19°C° 0 mm 1 m/s 741 mmHg 86%
    23:00 +18°C° 0 mm 2 m/s 741 mmHg 86%

    30 Mai, Samedi

    Heure Température Précipitation Vent Pression Humidité
    00:00 +17°C° 0 mm 3 m/s 741 mmHg 85%
    01:00 +17°C° 0 mm 4 m/s 741 mmHg 85%
    02:00 +15°C° 0 mm 4 m/s 742 mmHg 81%
    03:00 +14°C° 0 mm 4 m/s 742 mmHg 78%
    04:00 +13°C° 0 mm 4 m/s 742 mmHg 74%
    05:00 +13°C° 0 mm 4 m/s 742 mmHg 75%
    06:00 +13°C° 0 mm 4 m/s 743 mmHg 76%
    07:00 +13°C° 0 mm 4 m/s 743 mmHg 76%
    08:00 +14°C° 0 mm 4 m/s 743 mmHg 71%
    09:00 +15°C° 0 mm 4 m/s 744 mmHg 65%
    10:00 +15°C° 0 mm 4 m/s 744 mmHg 59%
    11:00 +17°C° 0 mm 4 m/s 744 mmHg 59%
    12:00 +17°C° 0 mm 4 m/s 744 mmHg 58%
    13:00 +18°C° 0 mm 4 m/s 743 mmHg 58%
    14:00 +16°C° 0 mm 5 m/s 743 mmHg 57%
    15:00 +16°C° 0 mm 5 m/s 743 mmHg 57%
    16:00 +16°C° 0 mm 6 m/s 743 mmHg 57%
    17:00 +15°C° 0 mm 5 m/s 744 mmHg 59%
    18:00 +13°C° 0 mm 5 m/s 744 mmHg 61%
    19:00 +12°C° 0 mm 5 m/s 744 mmHg 62%
    20:00 +12°C° 0 mm 5 m/s 745 mmHg 63%
    21:00 +10°C° 0 mm 6 m/s 745 mmHg 63%
    22:00 +9°C° 0 mm 6 m/s 746 mmHg 63%
    23:00 +9°C° 0 mm 6 m/s 746 mmHg 66%

    31 Mai, Dimanche

    Heure Température Précipitation Vent Pression Humidité
    00:00 +8°C° 0 mm 5 m/s 746 mmHg 68%
    01:00 +8°C° 0 mm 5 m/s 746 mmHg 71%
    02:00 +7°C° 0 mm 5 m/s 746 mmHg 70%
    03:00 +7°C° 0 mm 5 m/s 746 mmHg 70%
    04:00 +7°C° 0 mm 4 m/s 747 mmHg 69%
    05:00 +8°C° 0 mm 5 m/s 747 mmHg 65%
    06:00 +9°C° 0 mm 5 m/s 748 mmHg 61%
    07:00 +9°C° 0 mm 6 m/s 748 mmHg 57%
    08:00 +10°C° 0 mm 6 m/s 748 mmHg 53%
    09:00 +12°C° 0 mm 5 m/s 748 mmHg 48%
    10:00 +13°C° 0 mm 5 m/s 748 mmHg 44%
    11:00 +13°C° 0 mm 5 m/s 748 mmHg 43%
    12:00 +14°C° 0 mm 4 m/s 748 mmHg 42%
    13:00 +15°C° 0 mm 4 m/s 748 mmHg 41%
    14:00 +15°C° 0 mm 4 m/s 748 mmHg 41%
    15:00 +16°C° 0 mm 3 m/s 747 mmHg 41%
    16:00 +16°C° 0 mm 3 m/s 747 mmHg 40%
    17:00 +14°C° 0 mm 3 m/s 747 mmHg 46%
    18:00 +14°C° 0 mm 2 m/s 748 mmHg 51%
    19:00 +13°C° 0 mm 2 m/s 748 mmHg 56%
    20:00 +12°C° 0 mm 1 m/s 748 mmHg 58%
    21:00 +12°C° 0 mm 1 m/s 748 mmHg 59%
    22:00 +11°C° 0 mm 1 m/s 749 mmHg 61%
    23:00 +11°C° 0 mm 1 m/s 749 mmHg 62%
    Voir plus